This demonstration page uses our WeatherBlox Daily Observations layout. Learn more.

Left ArrowRight Arrow

47.50024, -111.30081

Hourly Observations for April 11, 2016

Temp ( °F °C ) Dew Point ( °F °C ) Humidity (%) Winds ( mph kmh ) Pressure ( in mb ) Visibility ( mi km ) Precip ( " mm )
12:53 am 00:53 Clear 35 1.7 19 -7.2 52 52 E 6 9 30.06 1018 10 16 0.00 0.00
1:53 am 01:53 Clear 32 0 20 -6.7 61 61 ESE 8 13 30.06 1018 10 16 0.00 0.00
2:53 am 02:53 Clear 32 0 20 -6.7 61 61 S 5 7 30.04 1017 10 16 0.00 0.00
3:53 am 03:53 Clear 27 -2.8 18 -7.8 69 69 SSW 6 9 30.05 1018 10 16 0.00 0.00
4:53 am 04:53 Clear 26 -3.3 19 -7.2 75 75 S 9 15 30.04 1017 10 16 0.00 0.00
5:53 am 05:53 Clear 27 -2.8 21 -6.1 78 78 SSW 9 15 30.03 1017 10 16 0.00 0.00
6:53 am 06:53 Sunny 29 -1.7 20 -6.7 69 69 ESE 6 9 30.02 1017 10 16 0.00 0.00
7:53 am 07:53 Sunny 36 2.2 25 -3.9 64 64 ESE 3 6 30.01 1016 10 16 0.00 0.00
8:53 am 08:53 Sunny 44 6.7 25 -3.9 47 47 SSE 8 13 29.99 1016 10 16 0.00 0.00
9:53 am 09:53 Sunny 50 10 26 -3.3 39 39 S 8 13 29.97 1015 10 16 0.00 0.00
10:53 am 10:53 Sunny 54 12.2 28 -2.2 37 37 VRB 3 6 29.96 1015 10 16 0.00 0.00
11:53 am 11:53 Sunny 59 15 30 -1.1 33 33 SW 5 7 29.94 1014 10 16 0.00 0.00
12:53 pm 12:53 Sunny 63 17.2 30 -1.1 29 29 WNW 10 17 29.92 1013 10 16 0.00 0.00
1:53 pm 13:53 Sunny 65 18.3 29 -1.7 26 26 W 8 13 29.90 1012 10 16 0.00 0.00
2:53 pm 14:53 Sunny 68 20 31 -0.6 25 25 VRB 7 11 29.87 1012 10 16 0.00 0.00
3:53 pm 15:53 Sunny 69 20.6 30 -1.1 23 23 SW 10 17 29.86 1011 10 16 0.00 0.00
4:53 pm 16:53 Sunny 70 21.1 26 -3.3 19 19 W 13 20 29.85 1011 10 16 0.00 0.00
5:08 pm 17:08 Sunny 72 22 23 -5 16 16 W 9 15 29.65 1004 10 16 0.00 0.00
5:53 pm 17:53 Sunny 70 21.1 23 -5 17 17 W 14 22 29.84 1011 10 16 0.00 0.00
6:53 pm 18:53 Sunny 68 20 26 -3.3 21 21 W 12 19 29.84 1011 10 16 0.00 0.00
7:53 pm 19:53 Sunny 52 11.1 29 -1.7 41 41 WSW 10 17 29.88 1012 10 16 0.00 0.00
8:53 pm 20:53 Clear 51 10.6 27 -2.8 39 39 W 10 17 29.87 1012 10 16 0.00 0.00
9:53 pm 21:53 Clear 50 10 28 -2.2 43 43 WSW 10 17 29.87 1012 10 16 0.00 0.00
10:53 pm 22:53 Clear 52 11.1 27 -2.8 38 38 SW 12 19 29.85 1011 10 16 0.00 0.00
11:53 pm 23:53 Clear 48 8.9 28 -2.2 46 46 SSW 8 13 29.85 1011 10 16 0.00 0.00

Powered by AerisWeather